Weather History for Philip, SD

Change the Weather History Date:

Sunday, November 20, 2011

  Actual Average Record
Temperature  
Mean Temperature 5 °F 32 °F  
Max Temperature 19 °F 45 °F 72 °F (1962)
Min Temperature -10 °F 19 °F -10 °F (2011)
Degree Days  
Heating Degree Days 60 33  
Month to date heating degree days 606 570  
Since 1 July heating degree days 1149 1273  
Cooling Degree Days 0 0  
Month to date cooling degree days 0 0  
Year to date cooling degree days 837 818  
Moisture  
Dew Point -5 °F    
Average Humidity 84    
Maximum Humidity 96    
Minimum Humidity 71    
Precipitation  
Precipitation 0.00 in 0.02 in 0.05 in (1953)
Month to date precipitation 0.42 0.48  
Year to date precipitation 15.77 16.78  
Sea Level Pressure  
Sea Level Pressure 30.20 in    
Wind  
Wind Speed 3 mph (West)    
Max Wind Speed 7 mph    
Max Gust Speed 8 mph    
Visibility 6 miles    
Events Fog    
T = Trace of Precipitation, MM = Missing Value Source: NWS Daily Summary

Daily Weather History Graph

Daily Weather History Graph

Search for Another Location

Airport:

Trip Planner

Search our weather history database for the weather conditions in past years. The results will help you decide how hot, cold, wet, or windy it might be!

Date:

Astronomy

Nov. 20, 2011 Rise Set
Actual Time 6:47 AM MST 4:15 PM MST
Civil Twilight 6:16 AM MST 4:47 PM MST
Nautical Twilight 5:40 AM MST 5:22 PM MST
Astronomical Twilight 5:06 AM MST 5:57 PM MST
Moon 1:08 AM MST (11/20) 1:14 PM MST (11/20)
Length of Visible Light 10h 31m
Length of Day
9h 28m
Waning Crescent, 26% of the Moon is Illuminated
Nov 20
Waning Crescent
Nov 24
New
Dec 2
First Quarter
Dec 10
Full
Dec 17
Last Quarter

Hourly Weather History & Observations

Time (MST) Temp. Windchill Dew Point Humidity Pressure Visibility Wind Dir Wind Speed Gust Speed Precip Events Conditions
12:31 AM -7.6 °F - -14.8 °F 71% 30.18 in 2.0 mi Calm Calm - N/A   Haze
12:39 AM -9.4 °F -20.9 °F -14.8 °F 77% 30.17 in 1.0 mi West 4.6 mph - N/A   Haze
12:47 AM -9.4 °F -18.6 °F -14.8 °F 77% 30.16 in 0.5 mi WNW 3.5 mph - N/A   Haze
12:55 AM -8.0 °F - -14.1 °F 75% 30.31 in 0.5 mi Calm Calm - N/A   Haze
1:16 AM -9.4 °F -22.7 °F -14.8 °F 77% 30.16 in 1.8 mi NW 5.8 mph - N/A   Haze
1:23 AM -7.6 °F -20.6 °F -14.8 °F 71% 30.16 in 3.0 mi NNW 5.8 mph - N/A   Haze
1:30 AM -7.6 °F -16.5 °F -14.8 °F 71% 30.17 in 1.8 mi NNW 3.5 mph - N/A   Haze
1:42 AM -9.4 °F - -14.8 °F 77% 30.17 in 3.0 mi Calm Calm - N/A   Haze
1:55 AM -9.0 °F -18.2 °F -15.0 °F 75% 30.30 in 2.0 mi West 3.5 mph - N/A   Haze
2:02 AM -9.4 °F -18.6 °F -14.8 °F 77% 30.15 in 0.8 mi WNW 3.5 mph - N/A   Haze
2:55 AM -9.0 °F -18.2 °F -16.1 °F 71% 30.28 in 0.8 mi WNW 3.5 mph - N/A   Haze
3:55 AM -9.0 °F - -16.1 °F 71% 30.30 in 0.5 mi Calm Calm - N/A   Haze
4:55 AM -9.9 °F -21.5 °F -17.0 °F 71% 30.30 in 0.2 mi NW 4.6 mph - N/A   Haze
5:08 AM -9.4 °F - -16.6 °F 71% 30.16 in 2.0 mi Calm Calm - N/A   Haze
5:16 AM -9.4 °F -24.3 °F -16.6 °F 71% 30.15 in 4.0 mi NE 6.9 mph - N/A   Haze
5:26 AM -7.6 °F - -14.8 °F 71% 30.16 in 2.5 mi Calm Calm - N/A   Haze
5:33 AM -9.4 °F -18.6 °F -16.6 °F 71% 30.16 in 0.8 mi South 3.5 mph - N/A   Haze
5:55 AM -9.9 °F - -17.0 °F 71% 30.31 in 0.5 mi Calm Calm - N/A   Haze
6:55 AM -9.0 °F -18.2 °F -16.1 °F 71% 30.30 in 0.2 mi SSW 3.5 mph - N/A   Haze
7:55 AM -4.0 °F - -8.0 °F 83% 30.30 in 0.2 mi Calm Calm - N/A Fog Light Freezing Fog
8:52 AM -0.4 °F -10.4 °F -2.2 °F 92% 30.16 in 2.0 mi WSW 4.6 mph - N/A   Mostly Cloudy
8:55 AM -0.9 °F -11.0 °F -2.9 °F 91% 30.30 in 5.0 mi WSW 4.6 mph - N/A   Mostly Cloudy
9:03 AM -0.4 °F -10.4 °F -2.2 °F 92% 30.16 in 9.0 mi WSW 4.6 mph - N/A   Scattered Clouds
9:55 AM 5.0 °F -4.1 °F 3.0 °F 92% 30.31 in 10.0 mi West 4.6 mph - N/A   Clear
10:55 AM 10.0 °F - 5.0 °F 80% 30.29 in 10.0 mi Calm Calm - N/A   Clear
11:55 AM 12.9 °F - 8.1 °F 81% 30.27 in 10.0 mi Calm Calm - N/A   Clear
12:55 PM 16.0 °F - 10.0 °F 77% 30.24 in 10.0 mi Calm Calm - N/A   Clear
1:55 PM 17.1 °F - 10.9 °F 77% 30.22 in 10.0 mi Calm Calm - N/A   Clear
2:55 PM 17.1 °F - 12.0 °F 81% 30.21 in 10.0 mi Calm Calm - N/A   Clear
3:55 PM 14.0 °F 6.5 °F 10.0 °F 84% 30.21 in 10.0 mi NNW 4.6 mph - N/A   Clear
4:55 PM 10.9 °F - 6.1 °F 81% 30.21 in 10.0 mi Calm Calm - N/A   Clear
5:55 PM 8.1 °F -3.2 °F 3.9 °F 83% 30.22 in 10.0 mi West 6.9 mph - N/A   Clear
6:55 PM 6.1 °F -2.8 °F 1.9 °F 83% 30.21 in 10.0 mi WSW 4.6 mph - N/A   Clear
7:55 PM 3.9 °F -5.3 °F -0.0 °F 84% 30.20 in 10.0 mi West 4.6 mph - N/A   Clear
8:55 PM 6.1 °F -2.8 °F 1.0 °F 80% 30.17 in 10.0 mi NW 4.6 mph - N/A   Clear
9:24 PM 6.8 °F -2.0 °F 1.4 °F 79% 30.03 in 10.0 mi West 4.6 mph - N/A   Scattered Clouds
9:33 PM 5.0 °F -2.1 °F 1.4 °F 85% 30.03 in 10.0 mi WSW 3.5 mph - N/A   Mostly Cloudy
9:55 PM 6.1 °F -2.8 °F 1.0 °F 80% 30.16 in 10.0 mi West 4.6 mph - N/A   Scattered Clouds
10:47 PM 8.6 °F -1.3 °F 3.2 °F 79% 30.03 in 8.0 mi WNW 5.8 mph - N/A   Mostly Cloudy
10:55 PM 8.1 °F -2.0 °F 3.0 °F 80% 30.16 in 10.0 mi West 5.8 mph - N/A   Mostly Cloudy
11:10 PM 6.8 °F -2.0 °F 1.4 °F 79% 30.04 in 10.0 mi WSW 4.6 mph - N/A   Scattered Clouds
11:55 PM 7.0 °F -3.3 °F 3.0 °F 84% 30.16 in 10.0 mi West 5.8 mph - N/A   Clear